Location: ?????????
(55.6553°N, 38.9075°E)
Time: 10:35:28
(UTC+00:00)

ADEOS II - Pass Details

Date: 18 October 2019
Orbit: 800 x 800 km, 98.5° (Epoch: 14 November)

Event Time Altitude Azimuth Distance (km) Brightness Sun altitude
Rises 01:00:59 0° 14° (NNE) 3,325 5.8 -25.6°
Reaches altitude 10° 01:03:22 10° 9° (N) 2,391 4.9 -25.3°
Enters shadow 01:08:05 50° 310° (NW) 1,022 2.4 -24.7°
